TimeAKDT,TemperatureF,Dew PointF,Humidity,Sea Level PressureIn,VisibilityMPH,Wind Direction,Wind SpeedMPH,Gust SpeedMPH,PrecipitationIn,Events,Conditions,WindDirDegrees,DateUTC
12:53 AM,45.0,41.0,86,30.04,10.0,North,17.3,32.2,N/A,,Clear,360,2012-10-10 08:53:00
1:53 AM,44.1,39.9,85,30.04,10.0,North,24.2,29.9,N/A,,Clear,360,2012-10-10 09:53:00
2:53 AM,44.1,39.9,85,30.04,10.0,North,11.5,24.2,N/A,,Scattered Clouds,360,2012-10-10 10:53:00
3:18 AM,42.8,39.2,87,30.04,10.0,North,12.7,-,N/A,,Mostly Cloudy,350,2012-10-10 11:18:00
3:34 AM,42.8,39.2,87,30.04,10.0,North,16.1,23.0,N/A,,Scattered Clouds,350,2012-10-10 11:34:00
3:53 AM,43.0,39.0,86,30.04,10.0,North,18.4,24.2,N/A,,Scattered Clouds,360,2012-10-10 11:53:00
5:53 AM,42.1,37.9,85,30.04,10.0,NNW,6.9,-,N/A,,Scattered Clouds,340,2012-10-10 13:53:00
6:33 AM,41.0,39.2,93,30.03,10.0,NNW,9.2,-,N/A,,Mostly Cloudy,330,2012-10-10 14:33:00
6:53 AM,41.0,37.9,89,30.03,10.0,North,9.2,-,N/A,,Mostly Cloudy,350,2012-10-10 14:53:00
7:26 AM,41.0,37.4,87,30.02,10.0,North,11.5,-,N/A,,Mostly Cloudy,360,2012-10-10 15:26:00
7:53 AM,41.0,37.9,89,30.01,10.0,NNW,10.4,-,N/A,,Mostly Cloudy,340,2012-10-10 15:53:00
8:42 AM,39.2,37.4,93,30.01,10.0,North,11.5,-,N/A,,Scattered Clouds,350,2012-10-10 16:42:00
8:53 AM,39.9,37.9,93,30.01,10.0,North,11.5,-,N/A,,Partly Cloudy,350,2012-10-10 16:53:00
9:17 AM,39.2,37.4,93,30.01,10.0,North,9.2,-,N/A,,Mostly Cloudy,360,2012-10-10 17:17:00
9:53 AM,42.1,39.0,89,30.02,10.0,North,9.2,-,N/A,,Mostly Cloudy,360,2012-10-10 17:53:00
10:53 AM,44.1,39.0,82,30.01,10.0,North,6.9,-,N/A,,Mostly Cloudy,360,2012-10-10 18:53:00
11:38 AM,44.6,39.2,81,30.00,10.0,North,10.4,-,N/A,,Scattered Clouds,360,2012-10-10 19:38:00
11:53 AM,45.0,39.0,80,30.00,10.0,North,11.5,-,N/A,,Clear,350,2012-10-10 19:53:00
12:53 PM,48.9,41.0,74,29.99,10.0,NNE,6.9,-,N/A,,Clear,30,2012-10-10 20:53:00
1:53 PM,46.9,41.0,80,29.98,10.0,South,4.6,-,N/A,,Clear,180,2012-10-10 21:53:00
2:53 PM,46.9,42.1,83,29.98,10.0,South,4.6,-,N/A,,Clear,190,2012-10-10 22:53:00
3:44 PM,46.4,42.8,87,29.98,10.0,South,5.8,-,N/A,,Mostly Cloudy,180,2012-10-10 23:44:00
3:53 PM,46.9,42.1,83,29.98,10.0,SSE,5.8,-,N/A,,Mostly Cloudy,160,2012-10-10 23:53:00
4:53 PM,46.0,42.1,86,29.96,10.0,South,4.6,-,N/A,,Overcast,190,2012-10-11 00:53:00
5:20 PM,46.4,42.8,87,29.95,10.0,Variable,4.6,-,N/A,,Overcast,0,2012-10-11 01:20:00
5:53 PM,45.0,42.1,90,29.95,10.0,Calm,Calm,-,N/A,,Overcast,0,2012-10-11 01:53:00
6:17 PM,44.6,42.8,93,29.94,10.0,Calm,Calm,-,N/A,,Overcast,0,2012-10-11 02:17:00
6:51 PM,44.6,41.0,87,29.93,10.0,Calm,Calm,-,N/A,,Scattered Clouds,0,2012-10-11 02:51:00
6:53 PM,44.1,41.0,89,29.94,10.0,Calm,Calm,-,N/A,,Partly Cloudy,0,2012-10-11 02:53:00
7:53 PM,42.1,39.9,92,29.94,10.0,Calm,Calm,-,N/A,,Mostly Cloudy,0,2012-10-11 03:53:00
8:53 PM,43.0,41.0,93,29.93,10.0,Calm,Calm,-,N/A,,Partly Cloudy,0,2012-10-11 04:53:00
9:53 PM,39.0,37.0,93,29.92,10.0,NW,3.5,-,N/A,,Clear,310,2012-10-11 05:53:00
10:53 PM,41.0,39.0,93,29.92,10.0,NNW,4.6,-,N/A,,Clear,340,2012-10-11 06:53:00
11:53 PM,42.1,39.0,89,29.90,10.0,Calm,Calm,-,N/A,,Clear,0,2012-10-11 07:53:00